Hourly Weather Holoborod'ka

Today, 22 April, Thursday

Time Temperature Precipitation Wind Pressure Humidity
00:00 +5°C° 0 mm 3 mps 752 mmHg 82%
01:00 +5°C° 0 mm 3 mps 752 mmHg 83%
02:00 +5°C° 0 mm 3 mps 753 mmHg 84%
03:00 +5°C° 0 mm 3 mps 753 mmHg 85%
04:00 +4°C° 0 mm 3 mps 753 mmHg 86%
05:00 +4°C° 0 mm 3 mps 753 mmHg 86%
06:00 +7°C° 0 mm 3 mps 753 mmHg 80%
07:00 +8°C° 0 mm 4 mps 753 mmHg 74%
08:00 +11°C° 0 mm 4 mps 754 mmHg 69%
09:00 +12°C° 0 mm 5 mps 754 mmHg 63%
10:00 +14°C° 0 mm 5 mps 754 mmHg 57%
11:00 +16°C° 0 mm 5 mps 754 mmHg 51%
12:00 +16°C° 0.1 mm 5 mps 754 mmHg 51%
13:00 +16°C° 0.1 mm 5 mps 754 mmHg 51%
14:00 +16°C° 0 mm 5 mps 754 mmHg 52%
15:00 +15°C° 0 mm 5 mps 753 mmHg 53%
16:00 +15°C° 0 mm 5 mps 753 mmHg 55%
17:00 +15°C° 0 mm 5 mps 753 mmHg 56%
18:00 +14°C° 0 mm 5 mps 753 mmHg 60%
19:00 +12°C° 0 mm 4 mps 753 mmHg 64%
20:00 +11°C° 0 mm 4 mps 754 mmHg 68%
21:00 +11°C° 0 mm 4 mps 753 mmHg 70%
22:00 +9°C° 0 mm 5 mps 753 mmHg 73%
23:00 +8°C° 0 mm 5 mps 753 mmHg 75%

Tomorrow, 23 April, Friday

Time Temperature Precipitation Wind Pressure Humidity
00:00 +8°C° 0.1 mm 5 mps 753 mmHg 78%
01:00 +8°C° 0.1 mm 5 mps 753 mmHg 82%
02:00 +7°C° 0.1 mm 5 mps 753 mmHg 85%
03:00 +7°C° 0.2 mm 4 mps 753 mmHg 87%
04:00 +7°C° 0.2 mm 4 mps 752 mmHg 89%
05:00 +7°C° 0.2 mm 4 mps 752 mmHg 91%
06:00 +7°C° 0.2 mm 4 mps 752 mmHg 89%
07:00 +9°C° 0.2 mm 3 mps 752 mmHg 87%
08:00 +10°C° 0.2 mm 3 mps 752 mmHg 86%
09:00 +8°C° 0.2 mm 4 mps 753 mmHg 86%
10:00 +7°C° 0.2 mm 4 mps 753 mmHg 87%
11:00 +6°C° 0.2 mm 5 mps 753 mmHg 88%
12:00 +6°C° 0.4 mm 4 mps 753 mmHg 87%
13:00 +6°C° 0.4 mm 4 mps 753 mmHg 85%
14:00 +7°C° 0.4 mm 3 mps 753 mmHg 83%
15:00 +7°C° 0.1 mm 3 mps 753 mmHg 79%
16:00 +8°C° 0.1 mm 3 mps 753 mmHg 75%
17:00 +8°C° 0.1 mm 2 mps 753 mmHg 71%
18:00 +8°C° 0 mm 2 mps 753 mmHg 74%
19:00 +7°C° 0 mm 2 mps 753 mmHg 76%
20:00 +6°C° 0 mm 2 mps 753 mmHg 79%
21:00 +6°C° 0 mm 2 mps 753 mmHg 81%
22:00 +4°C° 0 mm 3 mps 753 mmHg 82%
23:00 +3°C° 0 mm 3 mps 753 mmHg 84%

Day after tomorrow, 24 April, Saturday

Time Temperature Precipitation Wind Pressure Humidity
00:00 +3°C° 0 mm 3 mps 753 mmHg 83%
01:00 +3°C° 0 mm 3 mps 753 mmHg 83%
02:00 +3°C° 0 mm 3 mps 753 mmHg 82%
03:00 +2°C° 0 mm 3 mps 753 mmHg 84%
04:00 +1°C° 0 mm 4 mps 753 mmHg 86%
05:00 0°C° 0 mm 4 mps 753 mmHg 88%
06:00 +1°C° 0 mm 4 mps 753 mmHg 79%
07:00 +4°C° 0 mm 4 mps 753 mmHg 70%
08:00 +5°C° 0 mm 4 mps 754 mmHg 61%
09:00 +3°C° 0.1 mm 5 mps 754 mmHg 65%
10:00 +3°C° 0.1 mm 6 mps 754 mmHg 70%
11:00 +3°C° 0.1 mm 7 mps 754 mmHg 75%
12:00 +4°C° 0.1 mm 8 mps 754 mmHg 64%
13:00 +5°C° 0.1 mm 8 mps 754 mmHg 53%
14:00 +6°C° 0.1 mm 8 mps 754 mmHg 42%
15:00 +6°C° 0.1 mm 8 mps 754 mmHg 45%
16:00 +5°C° 0.1 mm 7 mps 754 mmHg 47%
17:00 +5°C° 0.1 mm 6 mps 755 mmHg 49%
18:00 +5°C° 0 mm 5 mps 755 mmHg 54%
19:00 +4°C° 0 mm 4 mps 755 mmHg 59%
20:00 +2°C° 0 mm 3 mps 756 mmHg 64%
21:00 +2°C° 0 mm 3 mps 756 mmHg 66%
22:00 +2°C° 0 mm 3 mps 756 mmHg 68%
23:00 +1°C° 0 mm 3 mps 756 mmHg 70%

25 April, Sunday

Time Temperature Precipitation Wind Pressure Humidity
00:00 +1°C° 0 mm 3 mps 756 mmHg 71%
01:00 0°C° 0 mm 3 mps 756 mmHg 72%
02:00 0°C° 0 mm 3 mps 756 mmHg 73%
03:00 0°C° 0 mm 3 mps 756 mmHg 74%
04:00 0°C° 0 mm 3 mps 756 mmHg 76%
05:00 -1°C° 0 mm 3 mps 755 mmHg 77%
06:00 +2°C° 0 mm 3 mps 755 mmHg 72%
07:00 +4°C° 0 mm 4 mps 755 mmHg 66%
08:00 +6°C° 0 mm 4 mps 755 mmHg 60%
09:00 +6°C° 0.1 mm 5 mps 755 mmHg 61%
10:00 +7°C° 0.1 mm 6 mps 754 mmHg 62%
11:00 +6°C° 0.1 mm 7 mps 754 mmHg 63%
12:00 +6°C° 0.3 mm 7 mps 754 mmHg 65%
13:00 +7°C° 0.3 mm 6 mps 754 mmHg 68%
14:00 +7°C° 0.3 mm 6 mps 754 mmHg 70%
15:00 +7°C° 0.1 mm 6 mps 754 mmHg 69%
16:00 +7°C° 0.1 mm 5 mps 754 mmHg 67%
17:00 +7°C° 0.1 mm 5 mps 753 mmHg 66%
18:00 +6°C° 0 mm 4 mps 754 mmHg 71%
19:00 +5°C° 0 mm 3 mps 754 mmHg 75%
20:00 +4°C° 0 mm 2 mps 754 mmHg 79%
21:00 +4°C° 0 mm 2 mps 754 mmHg 80%
22:00 +3°C° 0 mm 2 mps 754 mmHg 81%
23:00 +2°C° 0 mm 2 mps 755 mmHg 82%

26 April, Monday

Time Temperature Precipitation Wind Pressure Humidity
00:00 +2°C° 0 mm 2 mps 754 mmHg 81%
01:00 +1°C° 0 mm 2 mps 754 mmHg 81%
02:00 +1°C° 0 mm 2 mps 754 mmHg 80%
03:00 +1°C° 0 mm 2 mps 754 mmHg 80%
04:00 +1°C° 0 mm 2 mps 754 mmHg 80%
05:00 -1°C° 0 mm 2 mps 754 mmHg 79%
06:00 +1°C° 0 mm 3 mps 754 mmHg 72%
07:00 +3°C° 0 mm 3 mps 754 mmHg 65%
08:00 +5°C° 0 mm 3 mps 754 mmHg 58%
09:00 +6°C° 0 mm 4 mps 754 mmHg 53%
10:00 +7°C° 0 mm 5 mps 754 mmHg 48%
11:00 +8°C° 0 mm 5 mps 754 mmHg 44%
12:00 +8°C° 0.1 mm 6 mps 754 mmHg 45%
13:00 +8°C° 0.1 mm 6 mps 753 mmHg 47%
14:00 +8°C° 0.1 mm 7 mps 753 mmHg 49%
15:00 +8°C° 0.1 mm 6 mps 753 mmHg 52%
16:00 +7°C° 0.1 mm 5 mps 753 mmHg 55%
17:00 +7°C° 0.1 mm 5 mps 753 mmHg 58%
18:00 +6°C° 0 mm 4 mps 753 mmHg 61%
19:00 +5°C° 0 mm 3 mps 753 mmHg 65%
20:00 +5°C° 0 mm 1 mps 753 mmHg 68%
21:00 +5°C° 0 mm 1 mps 753 mmHg 69%
22:00 +4°C° 0 mm 2 mps 753 mmHg 70%
23:00 +3°C° 0 mm 2 mps 753 mmHg 72%

27 April, Tuesday

Time Temperature Precipitation Wind Pressure Humidity
00:00 +4°C° 0 mm 1 mps 753 mmHg 72%
01:00 +4°C° 0 mm 1 mps 752 mmHg 71%
02:00 +4°C° 0 mm 1 mps 752 mmHg 71%
03:00 +4°C° 0 mm 1 mps 752 mmHg 73%
04:00 +3°C° 0 mm 2 mps 752 mmHg 75%
05:00 +3°C° 0 mm 2 mps 751 mmHg 77%
06:00 +4°C° 0.3 mm 2 mps 751 mmHg 81%
07:00 +4°C° 0.3 mm 2 mps 751 mmHg 86%
08:00 +5°C° 0.3 mm 2 mps 751 mmHg 90%
09:00 +4°C° 2.1 mm 2 mps 751 mmHg 92%
10:00 +3°C° 2.1 mm 2 mps 751 mmHg 95%
11:00 +3°C° 2.1 mm 2 mps 751 mmHg 97%
12:00 +3°C° 0.5 mm 2 mps 751 mmHg 94%
13:00 +4°C° 0.5 mm 2 mps 751 mmHg 92%
14:00 +5°C° 0.5 mm 2 mps 751 mmHg 89%
15:00 +5°C° 0 mm 2 mps 751 mmHg 86%
16:00 +5°C° 0 mm 3 mps 752 mmHg 83%
17:00 +5°C° 0 mm 3 mps 752 mmHg 80%
18:00 +5°C° 0 mm 2 mps 752 mmHg 83%
19:00 +5°C° 0 mm 1 mps 753 mmHg 86%
20:00 +3°C° 0 mm 0 mps 753 mmHg 89%
21:00 +4°C° 0 mm 1 mps 753 mmHg 90%
22:00 +3°C° 0 mm 1 mps 753 mmHg 91%
23:00 +2°C° 0 mm 2 mps 754 mmHg 92%
Show more

We Need Your Consent

Meteoprog and our Service Providers may store and access personal data such as cookies, device identifiers or other similar technologies on your device and process such data to personalise content and ads, as well as provide social media features and to analyse the traffic.

  • Store and/or access information on your device

    Cookies, device identifiers or other information can be stored or accessed on your device for the purposes indicated above.

  • Personalised ads and content, ad and content measurement, audience insights, and products development

    Ads and content can be personalised based on a profile. More data can be added to better personalise ads and content. Ad and content performance can be measured. Insights about the audience who saw the ads and content can be derived. Such data can be used to develop or improve user’s experience, systems and software.

By clicking ‘I Agree’ you will allow the use of indicated cookies, device identifiers, web beacons or other similar technologies. Your settings can be changed in the browser on your device.

For certain purposes, legitimate interests may be relied on, rather than consent. You can read more about this in our Privacy and Cookie Policy.